YO8SSH-13 Weather Reports


time (UTC)temp
F
wind
direction
speed
knots
gust
knots
rain 1hr
in
rain 24hr
in
rain mn
in
humidity
%
barometer
mb
20260507152440 74 202 0.9 2.6 0.00 0.00 0.00 45 1011.0
20260507150941 75 68 0.0 3.5 0.00 0.00 0.00 42 1011.0
20260507145441 76 158 1.7 6.1 0.00 0.00 0.00 38 1010.0
20260507143939 77 158 0.0 4.3 0.00 0.00 0.00 37 1010.0
20260507142441 78 90 2.6 3.5 0.00 0.00 0.00 36 1010.0
20260507140941 79 292 1.7 3.5 0.00 0.00 0.00 35 1010.0
20260507135441 82 158 1.7 1.7 0.00 0.00 0.00 35 1010.0
20260507133940 82 112 1.7 4.3 0.00 0.00 0.00 34 1010.0
20260507132440 82 202 1.7 3.5 0.00 0.00 0.00 35 1010.0
20260507130941 82 135 1.7 3.5 0.00 0.00 0.00 35 1010.0
20260507125441 82 158 0.0 3.5 0.00 0.00 0.00 35 1010.0
20260507113941 84 158 1.7 1.7 0.00 0.00 0.00 34 1010.0
20260507112440 84 158 1.7 1.7 0.00 0.00 0.00 34 1011.0
20260507110941 84 112 1.7 4.3 0.00 0.00 0.00 34 1011.0
20260507105440 84 135 4.3 7.8 0.00 0.00 0.00 33 1011.0
20260507095441 82 158 0.9 0.9 0.00 0.00 0.00 35 1012.0
20260507093939 82 158 0.9 0.9 0.00 0.00 0.00 35 1012.0
20260507092440 81 180 2.6 2.6 0.00 0.00 0.00 37 1011.0
20260507090941 81 158 2.6 2.6 0.00 0.00 0.00 37 1012.0
20260507085440 80 90 5.2 5.2 0.00 0.00 0.00 39 1012.0
20260507083941 79 68 1.7 1.7 0.00 0.00 0.00 40 1012.0
20260507082441 78 90 1.7 1.7 0.00 0.00 0.00 44 1012.0
20260507080940 77 202 0.9 0.9 0.00 0.00 0.00 44 1012.0
20260507072440 72 158 0.9 0.9 0.00 0.00 0.00 49 1012.0
20260507070939 72 158 0.9 0.9 0.00 0.00 0.00 49 1012.0
20260507065440 72 112 0.0 1.7 0.00 0.00 0.00 49 1012.0
20260507042027 52 292 0.0 0.0 0.00 0.00 0.00 67 1011.0
20260507040528 52 292 0.0 0.0 0.00 0.00 0.00 67 1011.0
20260507035026 52 292 0.0 0.0 0.00 0.00 0.00 66 1011.0
20260507033527 52 22 0.0 0.0 0.00 0.00 0.00 67 1011.0
20260507032028 52 22 0.0 0.0 0.00 0.00 0.00 66 1011.0
20260507030527 52 68 0.0 0.0 0.00 0.00 0.00 66 1011.0
20260507025030 52 68 0.0 0.0 0.00 0.00 0.00 65 1011.0
20260507023527 52 90 0.0 0.0 0.00 0.00 0.00 63 1011.0
20260507022027 52 90 0.0 0.0 0.00 0.00 0.00 63 1011.0
20260507020527 52 225 0.0 0.0 0.00 0.00 0.00 63 1011.0
20260507015028 53 248 0.0 0.0 0.00 0.00 0.00 62 1011.0
20260507013527 53 292 0.0 0.0 0.00 0.00 0.00 61 1011.0
20260507012026 54 292 0.0 0.0 0.00 0.00 0.00 61 1011.0
20260507010526 54 315 0.0 0.0 0.00 0.00 0.00 59 1011.0
20260507005027 55 315 0.0 0.0 0.00 0.00 0.00 59 1011.0
20260507003527 55 0 0.0 0.0 0.00 0.00 0.00 59 1011.0
20260507002026 55 338 0.0 0.0 0.00 0.00 0.00 59 1011.0
20260507000528 56 315 0.0 0.0 0.00 0.00 0.00 58 1010.0
20260506235026 56 0 0.0 0.0 0.00 0.00 0.00 58 1011.0
20260506233527 56 0 0.0 0.0 0.00 0.00 0.00 58 1010.0
20260506232026 57 270 0.0 0.0 0.00 0.00 0.00 57 1011.0
20260506230534 58 22 0.0 0.0 0.00 0.00 0.00 56 1010.0
20260506225026 58 338 0.0 0.0 0.00 0.00 0.00 55 1010.0
20260506223526 58 292 0.0 0.0 0.00 0.00 0.00 54 1010.0
20260506222027 59 292 0.0 0.0 0.00 0.00 0.00 53 1010.0
20260506220528 60 135 0.0 0.0 0.00 0.00 0.00 52 1010.0
20260506215026 60 135 0.0 0.0 0.00 0.00 0.00 50 1010.0
20260506213527 61 135 0.0 0.0 0.00 0.00 0.00 50 1010.0
20260506212027 61 135 0.0 0.0 0.00 0.00 0.00 48 1010.0
20260506210529 62 135 0.0 0.0 0.00 0.00 0.00 48 1010.0
20260506205027 62 112 0.0 0.0 0.00 0.00 0.00 46 1010.0
20260506203527 63 90 0.0 0.0 0.00 0.00 0.00 47 1010.0
20260506202027 64 158 0.0 0.0 0.00 0.00 0.00 46 1010.0
20260506200527 64 135 0.0 0.0 0.00 0.00 0.00 46 1010.0
20260506195027 65 135 0.0 0.0 0.00 0.00 0.00 45 1010.0
20260506193526 65 158 0.0 1.7 0.00 0.00 0.00 45 1010.0
20260506192027 66 135 0.0 0.0 0.00 0.00 0.00 43 1010.0
20260506190526 67 180 0.0 0.0 0.00 0.00 0.00 42 1009.0
20260506185027 68 112 0.0 1.7 0.00 0.00 0.00 41 1009.0
20260506183528 68 180 0.0 1.7 0.00 0.00 0.00 40 1009.0
20260506182026 69 90 0.0 2.6 0.00 0.00 0.00 39 1009.0
20260506180528 70 135 0.0 1.7 0.00 0.00 0.00 37 1009.0
20260506175027 71 180 0.0 1.7 0.00 0.00 0.00 36 1009.0
20260506173526 72 90 0.0 3.5 0.00 0.00 0.00 35 1009.0
20260506172027 73 68 0.0 2.6 0.00 0.00 0.00 33 1009.0
20260506170527 74 158 0.9 10.4 0.00 0.00 0.00 31 1008.0
20260506165026 75 158 3.5 3.5 0.00 0.00 0.00 30 1008.0
20260506163527 76 158 4.3 4.3 0.00 0.00 0.00 29 1008.0
20260506162027 77 180 0.0 7.8 0.00 0.00 0.00 28 1008.0
20260506160527 79 158 5.2 5.2 0.00 0.00 0.00 27 1009.0
20260506155028 80 90 6.1 6.1 0.00 0.00 0.00 26 1009.0
20260506153526 81 135 7.0 7.8 0.00 0.00 0.00 25 1009.0